Weather reports worldwide

Advertisment
Yeovilton, United Kingdom (3853): temperature & dewpoint: 10.12.2018 00:00:00 - 16.12.2018 00:00:00 (GMT)Yeovilton, United Kingdom (3853): temperature -20cm & temperature -100cm: 10.12.2018 00:00:00 - 16.12.2018 00:00:00 (GMT)Yeovilton, United Kingdom (3853): wind speed & gusts: 10.12.2018 00:00:00 - 16.12.2018 00:00:00 (GMT)Yeovilton, United Kingdom (3853): wind direction: 10.12.2018 00:00:00 - 16.12.2018 00:00:00 (GMT)Yeovilton, United Kingdom (3853): reduced air pressure: 10.12.2018 00:00:00 - 16.12.2018 00:00:00 (GMT)Yeovilton, United Kingdom (3853): visibility: 10.12.2018 00:00:00 - 16.12.2018 00:00:00 (GMT)Yeovilton, United Kingdom (3853): sunshine duration: 10.12.2018 00:00:00 - 16.12.2018 00:00:00 (GMT)Yeovilton, United Kingdom (3853): precipitation: 10.12.2018 00:00:00 - 16.12.2018 00:00:00 (GMT)
Date & Time tt [°C] td [°C] tt -20cm [°C] tt -100cm [°C] ff [km/h] ff [kn] fx [km/h] fx [kn] dd ppp [hPa] vv [km] sd [min] rr [mm]
16.12.2018 00:00:00 7,7 4,7 - - 11 6 - - WSW 1004,4 28 - 0,0
15.12.2018 23:00:00 8,0 5,2 - - 11 6 - - SW 1004,0 22 0 0,0
15.12.2018 22:00:00 9,1 5,0 - - 16 9 - - WSW 1003,5 29 0 0,0
15.12.2018 21:00:00 9,4 5,1 - - 21 11 - - WSW 1002,4 29 0 0,0
15.12.2018 20:00:00 9,8 5,5 - - 21 11 - - WSW 1001,6 30 0 0,0
15.12.2018 19:00:00 9,8 5,8 - - 24 13 - - SW 1000,5 25 0 0,0
15.12.2018 18:00:00 10,6 6,1 - - 28 15 57 31 WSW 1000,3 10 0 0,0
15.12.2018 17:00:00 12,5 11,8 - - 28 15 50 27 SSW 998,5 10 0 1,4
15.12.2018 16:00:00 7,6 7,0 - - 35 19 55 30 SE 999,2 7 0 2,2
15.12.2018 15:00:00 6,6 5,8 - - 39 21 57 31 SE 1001,2 8 0 0,8
15.12.2018 14:00:00 6,1 5,0 - - 35 19 52 28 SE 1003,0 12 0 0,2
15.12.2018 13:00:00 6,0 5,0 - - 28 15 54 29 SE 1004,9 20 0 2,8
15.12.2018 12:00:00 6,6 5,4 - - 31 17 54 29 SE 1006,7 18 0 0,4
15.12.2018 11:00:00 6,4 5,3 - - 34 18 54 29 SE 1008,5 9 0 0,4
15.12.2018 10:00:00 5,8 4,8 - - 31 17 48 26 SE 1010,0 7 0 0,2
15.12.2018 09:00:00 5,2 4,3 8,0 9,7 35 19 54 29 SE 1010,8 3,4 0 0,0
15.12.2018 08:00:00 4,7 3,5 - - 39 21 57 31 SE 1011,4 10 0 1,0
15.12.2018 07:00:00 4,1 2,7 - - 35 19 54 29 SE 1012,2 8 0 1,6
15.12.2018 06:00:00 3,9 2,0 - - 34 18 48 26 ESE 1013,5 8 0 0,8
15.12.2018 05:00:00 3,8 1,6 - - 29 16 50 27 SE 1014,4 10 0 0,6
15.12.2018 04:00:00 4,7 0,1 - - 31 17 - - SE 1015,6 16 0 0,0
15.12.2018 03:00:00 4,8 0,1 - - 24 13 - - SE 1016,9 17 0 0,0
15.12.2018 02:00:00 4,8 -0,1 - - 28 15 - - SE 1017,5 16 0 0,0
15.12.2018 01:00:00 4,6 -0,2 - - 22 12 - - SE 1018,2 30 0 0,0
15.12.2018 00:00:00 4,6 -0,3 - - 21 11 - - SE 1018,9 23 - 0,0
14.12.2018 23:00:00 3,7 0,1 - - 15 8 - - ESE 1019,3 21 0 0,0
14.12.2018 22:00:00 3,7 -0,3 - - 13 7 - - E 1020,1 26 0 0,0
14.12.2018 21:00:00 3,5 -0,5 - - 15 8 - - ESE 1020,7 35 0 0,0
14.12.2018 20:00:00 2,5 -0,1 - - 9 5 - - ESE 1021,8 22 0 0,0
14.12.2018 19:00:00 2,6 -0,6 - - 16 9 - - ESE 1021,0 16 0 0,0
14.12.2018 18:00:00 3,3 -0,4 - - 21 11 - - E 1021,1 10 0 0,0
14.12.2018 17:00:00 3,5 -0,6 - - 18 10 - - E 1021,4 21 0 0,0
14.12.2018 16:00:00 3,8 -0,4 - - 13 7 - - ESE 1021,8 30 0 0,0
14.12.2018 15:00:00 4,2 -0,6 - - 21 11 - - ESE 1021,3 10 0 0,0
14.12.2018 14:00:00 4,4 -0,6 - - 21 11 - - ESE 1021,1 10 12 0,0
14.12.2018 13:00:00 4,0 -0,9 - - 15 8 - - E 1021,6 10 12 0,0
14.12.2018 12:00:00 3,7 -1,3 - - 15 8 - - ESE 1022,1 10 0 0,0
14.12.2018 11:00:00 2,4 -2,0 - - 9 5 - - ESE 1022,9 10 0 0,0
14.12.2018 10:00:00 2,0 -2,3 - - 11 6 - - ESE 1022,6 10 0 0,0
14.12.2018 09:00:00 0,8 -2,1 8,2 9,7 9 5 - - E 1022,2 10 0 0,0
14.12.2018 08:00:00 0,6 -2,5 - - 9 5 - - E 1021,3 9 0 0,0
14.12.2018 07:00:00 0,7 -2,0 - - 21 11 - - E 1020,2 10 0 0,0
14.12.2018 06:00:00 1,2 -1,8 - - 22 12 - - E 1020,4 15 0 0,0
14.12.2018 05:00:00 1,4 -1,6 - - 15 8 - - E 1021,0 15 0 0,0
14.12.2018 04:00:00 1,2 -1,5 - - 15 8 - - E 1021,0 10 0 0,0
14.12.2018 03:00:00 1,3 -1,3 - - 22 12 - - E 1020,4 15 0 0,0
14.12.2018 02:00:00 1,0 -1,3 - - 21 11 - - E 1020,1 10 0 0,0
14.12.2018 01:00:00 -0,1 -2,2 - - 16 9 - - ENE 1019,5 15 0 0,0
14.12.2018 00:00:00 0,2 -2,0 - - 9 5 - - E 1019,6 10 - 0,0
13.12.2018 23:00:00 0,6 -2,2 - - 15 8 - - E 1019,3 10 0 0,0
13.12.2018 22:00:00 0,8 -2,3 - - 13 7 - - E 1019,0 10 0 0,0
13.12.2018 21:00:00 0,8 -2,3 - - 16 9 - - ENE 1018,6 10 0 0,0
13.12.2018 20:00:00 1,6 -2,0 - - 22 12 - - E 1018,0 10 0 0,0
13.12.2018 19:00:00 2,2 -1,1 - - 26 14 - - ENE 1017,4 10 0 0,0
13.12.2018 18:00:00 2,7 -1,1 - - 18 10 - - E 1016,6 10 0 0,0
13.12.2018 17:00:00 3,4 -0,5 - - 16 9 - - E 1015,9 10 0 0,0
13.12.2018 16:00:00 4,5 0,0 - - 15 8 - - E 1015,1 10 0 0,0
13.12.2018 15:00:00 5,4 -0,1 - - 29 16 54 29 E 1014,5 20 0 0,0
13.12.2018 14:00:00 5,9 -0,1 - - 35 19 54 29 E 1013,9 10 36 0,0
13.12.2018 13:00:00 6,4 0,5 - - 39 21 55 30 ESE 1013,4 10 24 0,0
13.12.2018 12:00:00 6,2 1,2 - - 28 15 50 27 ESE 1013,7 10 6 0,0
13.12.2018 11:00:00 5,7 0,7 - - 29 16 - - ESE 1013,7 10 0 0,0
13.12.2018 10:00:00 5,8 0,8 - - 28 15 46 25 ESE 1013,6 10 0 0,0
13.12.2018 09:00:00 5,9 0,7 9,2 9,9 29 16 50 27 ESE 1012,9 10 0 0,0
13.12.2018 08:00:00 5,8 0,3 - - 26 14 - - ESE 1012,5 15 0 0,0
13.12.2018 07:00:00 5,9 0,3 - - 26 14 52 28 ESE 1011,9 20 0 0,0
13.12.2018 06:00:00 5,9 0,0 - - 34 18 50 27 ESE 1011,7 10 0 0,0
13.12.2018 05:00:00 5,9 0,1 - - 34 18 54 29 ESE 1011,9 15 0 0,0
13.12.2018 04:00:00 5,7 -0,5 - - 28 15 50 27 SE 1012,3 10 0 0,0
13.12.2018 03:00:00 6,0 -0,7 - - 29 16 48 26 ESE 1012,1 10 0 0,0
13.12.2018 02:00:00 6,0 -0,3 - - 26 14 - - ESE 1013,1 10 0 0,0
13.12.2018 01:00:00 5,7 -0,6 - - 24 13 - - ESE 1013,5 15 0 0,0
13.12.2018 00:00:00 6,2 0,1 - - 29 16 46 25 ESE 1013,8 10 - 0,0
12.12.2018 23:00:00 6,2 0,7 - - 28 15 - - ESE 1014,5 10 0 0,0
12.12.2018 22:00:00 6,1 1,2 - - 28 15 46 25 SE 1015,4 10 0 0,0
12.12.2018 21:00:00 6,3 1,3 - - 29 16 46 25 ESE 1015,5 10 0 0,0
12.12.2018 20:00:00 6,0 1,2 - - 31 17 - - ESE 1015,6 15 0 0,0
12.12.2018 19:00:00 6,5 2,3 - - 28 15 - - ESE 1016,5 10 0 0,0
12.12.2018 18:00:00 6,7 2,9 - - 24 13 - - SE 1017,0 10 0 0,0
12.12.2018 17:00:00 7,1 2,8 - - 24 13 - - ESE 1017,4 10 0 0,0
12.12.2018 16:00:00 7,2 3,2 - - 24 13 - - ESE 1017,5 10 0 0,0
12.12.2018 15:00:00 7,9 3,5 - - 24 13 - - SE 1018,1 15 6 0,0
12.12.2018 14:00:00 8,4 3,2 - - 26 14 - - SE 1018,7 10 12 0,0
12.12.2018 13:00:00 9,1 4,5 - - 28 15 - - SE 1019,1 10 54 0,0
12.12.2018 12:00:00 8,6 4,3 - - 26 14 - - SE 1019,5 10 30 0,0
12.12.2018 11:00:00 8,5 5,2 - - 22 12 - - SE 1019,9 10 18 0,0
12.12.2018 10:00:00 7,1 4,7 - - 15 8 - - SE 1020,1 10 12 0,0
12.12.2018 09:00:00 6,7 4,8 9,7 10,0 15 8 - - ESE 1020,0 10 0 0,0
12.12.2018 08:00:00 7,6 5,4 - - 15 8 - - ESE 1019,7 15 0 0,0
12.12.2018 07:00:00 8,3 5,8 - - 15 8 - - SE 1019,6 10 0 0,0
12.12.2018 06:00:00 8,5 6,3 - - 16 9 - - SE 1019,4 15 0 0,0
12.12.2018 05:00:00 8,5 6,5 - - 16 9 - - SE 1019,3 10 0 0,0
12.12.2018 04:00:00 7,9 6,1 - - 16 9 - - ESE 1019,5 10 0 0,0
12.12.2018 03:00:00 9,5 7,8 - - 13 7 - - E 1005,0 10 0 0,0
12.12.2018 02:00:00 7,3 5,3 - - 15 8 - - ESE 1019,5 10 0 0,0
12.12.2018 01:00:00 8,1 5,4 - - 13 7 - - SE 1019,9 15 0 0,0
12.12.2018 00:00:00 9,2 6,0 - - 21 11 - - SE 1020,0 15 - 0,0
11.12.2018 23:00:00 8,7 6,1 - - 16 9 - - ESE 1019,8 10 0 0,0
11.12.2018 22:00:00 8,3 5,7 - - 13 7 - - E 1020,1 10 0 0,0
11.12.2018 21:00:00 8,5 6,1 - - 11 6 - - ESE 1020,3 10 0 0,0
11.12.2018 20:00:00 8,7 6,2 - - 15 8 - - SE 1020,6 10 0 0,0
11.12.2018 19:00:00 8,2 6,2 - - 11 6 - - SE 1020,8 10 0 0,0
11.12.2018 18:00:00 8,7 6,3 - - 13 7 - - SE 1020,9 10 0 0,0
11.12.2018 17:00:00 9,0 6,3 - - 13 7 - - SSE 1021,1 10 0 0,0
11.12.2018 16:00:00 9,3 6,9 - - 15 8 - - SSE 1021,2 10 0 0,0
11.12.2018 15:00:00 9,9 7,5 - - 16 9 - - SE 1021,8 15 0 0,0
11.12.2018 14:00:00 9,7 7,6 - - 13 7 - - SSE 1022,2 10 0 0,0
11.12.2018 13:00:00 9,8 7,6 - - 15 8 - - SE 1022,9 10 0 0,0
11.12.2018 12:00:00 10,0 7,7 - - 13 7 - - SE 1023,3 10 0 0,0
11.12.2018 11:00:00 8,8 7,7 - - 13 7 - - ESE 1024,0 7 0 0,0
11.12.2018 10:00:00 8,1 7,4 - - 13 7 - - ESE 1024,6 7 0 0,0
11.12.2018 09:00:00 7,6 7,2 9,5 10,0 15 8 - - SE 1024,9 10 0 0,0
11.12.2018 08:00:00 5,9 5,8 - - 8 4 - - ESE 1024,9 10 0 0,0
11.12.2018 07:00:00 4,4 4,2 - - 5 3 - - NE 1025,0 10 0 0,0
11.12.2018 06:00:00 4,0 3,8 - - 0 0 - - N 1025,2 10 0 0,0
11.12.2018 05:00:00 2,8 2,6 - - 4 2 - - ENE 1025,3 10 0 0,0
11.12.2018 04:00:00 1,9 1,7 - - 4 2 - - ENE 1026,0 8 0 0,0
11.12.2018 03:00:00 2,0 1,7 - - 5 3 - - E 1026,6 8 0 0,0
11.12.2018 02:00:00 1,8 1,5 - - 2 1 - - ESE 1026,8 8 0 0,0
11.12.2018 01:00:00 2,9 2,5 - - 4 2 - - ESE 1027,2 8 0 0,0
11.12.2018 00:00:00 3,8 3,3 - - 0 0 - - N 1028,1 8 - 0,0
10.12.2018 23:00:00 4,3 3,4 - - 2 1 - - E 1028,3 10 0 0,0
10.12.2018 22:00:00 5,8 4,8 - - 4 2 - - SE 1028,3 10 0 0,0
10.12.2018 21:00:00 6,3 5,3 - - 9 5 - - SE 1028,5 10 0 0,0
10.12.2018 20:00:00 6,2 5,1 - - 4 2 - - ESE 1028,7 10 0 0,0
10.12.2018 19:00:00 6,0 4,7 - - 8 4 - - ESE 1028,6 10 0 0,0
10.12.2018 18:00:00 6,9 5,1 - - 4 2 - - ESE 1029,2 10 0 0,0
10.12.2018 17:00:00 7,0 5,2 - - 8 4 - - SSW 1029,2 10 0 0,0
10.12.2018 16:00:00 8,4 6,0 - - 5 3 - - SW 1029,1 10 0 0,0
10.12.2018 15:00:00 8,9 6,2 - - 4 2 - - WSW 1029,1 10 0 0,0
10.12.2018 14:00:00 8,8 6,4 - - 5 3 - - WSW 1029,2 10 0 0,0
10.12.2018 13:00:00 8,4 6,3 - - 8 4 - - W 1029,2 10 0 0,0
10.12.2018 12:00:00 8,0 5,6 - - 13 7 - - W 1029,5 10 0 0,0
10.12.2018 11:00:00 7,4 5,4 - - 8 4 - - W 1029,5 15 6 0,0
10.12.2018 10:00:00 6,1 4,7 - - 11 6 - - WNW 1029,8 10 54 0,0
10.12.2018 09:00:00 3,6 2,3 10,0 10,0 9 5 - - WNW 1029,3 10 6 0,0
10.12.2018 08:00:00 4,7 3,0 - - 9 5 - - WSW 1028,7 10 0 0,0
10.12.2018 07:00:00 4,5 2,3 - - 8 4 - - SW 1028,6 10 0 0,0
10.12.2018 06:00:00 7,0 4,4 - - 16 9 - - W 1028,0 10 0 0,0
10.12.2018 05:00:00 6,8 3,9 - - 11 6 - - WSW 1027,6 10 0 0,0
10.12.2018 04:00:00 7,3 4,6 - - 13 7 - - W 1027,3 10 0 0,0
10.12.2018 03:00:00 6,8 4,4 - - 13 7 - - W 1026,8 10 0 0,0
10.12.2018 02:00:00 5,7 3,8 - - 5 3 - - WSW 1026,7 22 0 0,0
10.12.2018 01:00:00 7,0 4,4 - - 13 7 - - WNW 1026,1 20 0 0,0
10.12.2018 00:00:00 7,4 4,8 - - 21 11 - - WNW 1025,6 10 - 0,0

tt = temperature
td = dewpoint
tt -20cm = temperature -20cm
tt -100cm = temperature -100cm
ff = wind speed
fx = gusts
dd = wind direction
ppp = reduced air pressure
vv = visibility
sd = sunshine duration
rr = precipitation

Next stations